User: anonymous   Login
Location: Emory University Observatory
(33.7903°N, 84.3267°W)
Time: 10:51:49
(UTC-04:00)
Language:

AIST 2D - Orbit

View from above orbital plane
View from above orbital plane
View from above satellite
View from above satellite

Ground track
Ground track

The orbit data is extracted from the following two-line orbital elements,

1 41465U 16026B   18197.11826322  .00001260  00000-0  42134-4 0  9993
2 41465  97.2204  96.0205 0009657 252.0272 238.0780 15.32793349123779
Epoch (UTC): 16 July 2018 02:50:17
Eccentricity: 0.0009657
inclination: 97.2204°
perigee height: 461 km
apogee height: 474 km
right ascension of ascending node: 96.0205°
argument of perigee: 252.0272°
revolutions per day: 15.32793349
mean anomaly at epoch: 238.0780°
orbit number at epoch: 12377

The dashed part of the orbit path shows where the satellite is in the earth's shadow,  

DLR